Time,TemperatureF,DewpointF,PressureIn,WindDirection,WindDirectionDegrees,WindSpeedMPH,WindSpeedGustMPH,Humidity,HourlyPrecipIn,Conditions,Clouds,dailyrainin,SoftwareType,DateUTC
2013-05-21 07:32:00,53.0,53.0,-100.00,ESE,118,10.0,-999.0,100,-99.99,,,-99.99,,2013-05-21 11:32:00,
2013-05-21 10:00:00,51.0,51.0,-100.00,East,98,16.0,-999.0,100,-99.99,,,-99.99,,2013-05-21 14:00:00,
2013-05-21 10:02:00,51.0,51.0,-100.00,ESE,110,14.0,-999.0,100,-99.99,,,-99.99,,2013-05-21 14:02:00,
2013-05-21 10:11:00,51.0,51.0,-100.00,ESE,110,14.0,-999.0,99,-99.99,,,-99.99,,2013-05-21 14:11:00,
2013-05-21 10:21:00,51.0,51.0,-100.00,ESE,110,14.0,-999.0,99,-99.99,,,-99.99,,2013-05-21 14:21:00,
2013-05-21 10:30:00,53.0,53.0,-100.00,East,98,16.0,-999.0,100,-99.99,,,-99.99,,2013-05-21 14:30:00,
2013-05-21 10:32:00,51.0,51.0,-100.00,East,98,16.0,-999.0,99,-99.99,,,-99.99,,2013-05-21 14:32:00,
2013-05-21 10:42:00,51.0,51.0,-100.00,East,98,16.0,-999.0,100,-99.99,,,-99.99,,2013-05-21 14:42:00,
2013-05-21 10:51:00,51.0,51.0,-100.00,East,98,16.0,-999.0,100,-99.99,,,-99.99,,2013-05-21 14:51:00,
2013-05-21 11:00:00,52.0,52.0,-100.00,East,92,17.0,-999.0,100,-99.99,,,-99.99,,2013-05-21 15:00:00,
2013-05-21 11:11:00,53.0,53.0,-100.00,East,98,16.0,-999.0,100,-99.99,,,-99.99,,2013-05-21 15:11:00,
2013-05-21 11:21:00,53.0,53.0,-100.00,East,98,16.0,-999.0,100,-99.99,,,-99.99,,2013-05-21 15:21:00,
2013-05-21 11:42:00,52.0,52.0,-100.00,East,92,17.0,-999.0,100,-99.99,,,-99.99,,2013-05-21 15:42:00,
2013-05-21 11:53:00,52.0,52.0,-100.00,East,92,17.0,-999.0,100,-99.99,,,-99.99,,2013-05-21 15:53:00,
2013-05-21 12:13:00,52.0,52.0,-100.00,East,92,17.0,-999.0,100,-99.99,,,-99.99,,2013-05-21 16:13:00,
2013-05-21 12:20:00,52.0,52.0,-100.00,ESE,110,14.0,-999.0,100,-99.99,,,-99.99,,2013-05-21 16:20:00,
2013-05-21 12:23:00,52.0,52.0,-100.00,East,92,17.0,-999.0,100,-99.99,,,-99.99,,2013-05-21 16:23:00,
2013-05-21 12:32:00,52.0,52.0,-100.00,ESE,110,14.0,-999.0,100,-99.99,,,-99.99,,2013-05-21 16:32:00,
2013-05-21 12:42:00,52.0,52.0,-100.00,ESE,110,14.0,-999.0,100,-99.99,,,-99.99,,2013-05-21 16:42:00,
2013-05-21 12:52:00,52.0,52.0,-100.00,ESE,110,14.0,-999.0,100,-99.99,,,-99.99,,2013-05-21 16:52:00,
2013-05-21 13:02:00,52.0,52.0,-100.00,ESE,110,14.0,-999.0,100,-99.99,,,-99.99,,2013-05-21 17:02:00,
2013-05-21 13:12:00,52.0,52.0,-100.00,ESE,110,14.0,-999.0,100,-99.99,,,-99.99,,2013-05-21 17:12:00,
2013-05-21 13:33:00,52.0,52.0,-100.00,ESE,118,16.0,-999.0,100,-99.99,,,-99.99,,2013-05-21 17:33:00,
2013-05-21 13:43:00,52.0,52.0,-100.00,ESE,118,16.0,-999.0,100,-99.99,,,-99.99,,2013-05-21 17:43:00,
2013-05-21 13:52:00,52.0,52.0,-100.00,ESE,118,16.0,-999.0,100,-99.99,,,-99.99,,2013-05-21 17:52:00,
2013-05-21 14:02:00,52.0,52.0,-100.00,ESE,118,16.0,-999.0,100,-99.99,,,-99.99,,2013-05-21 18:02:00,
2013-05-21 14:12:00,52.0,52.0,-100.00,ESE,118,16.0,-999.0,99,-99.99,,,-99.99,,2013-05-21 18:12:00,
2013-05-21 14:22:00,52.0,52.0,-100.00,ESE,118,16.0,-999.0,100,-99.99,,,-99.99,,2013-05-21 18:22:00,
2013-05-21 14:32:00,52.0,52.0,-100.00,ESE,116,14.0,-999.0,99,-99.99,,,-99.99,,2013-05-21 18:32:00,
2013-05-21 14:42:00,53.0,53.0,-100.00,ESE,116,14.0,-999.0,100,-99.99,,,-99.99,,2013-05-21 18:42:00,
2013-05-21 14:52:00,54.0,54.0,-100.00,ESE,116,14.0,-999.0,100,-99.99,,,-99.99,,2013-05-21 18:52:00,
2013-05-21 15:02:00,54.0,54.0,-100.00,ESE,116,14.0,-999.0,100,-99.99,,,-99.99,,2013-05-21 19:02:00,
2013-05-21 15:11:00,54.0,53.0,-100.00,ESE,116,14.0,-999.0,99,-99.99,,,-99.99,,2013-05-21 19:11:00,
2013-05-21 15:22:00,54.0,54.0,-100.00,ESE,104,14.0,-999.0,99,-99.99,,,-99.99,,2013-05-21 19:22:00,
2013-05-21 15:32:00,54.0,54.0,-100.00,ESE,102,13.0,-999.0,98,-99.99,,,-99.99,,2013-05-21 19:32:00,
2013-05-21 15:42:00,55.0,54.0,-100.00,ESE,102,13.0,-999.0,97,-99.99,,,-99.99,,2013-05-21 19:42:00,
2013-05-21 15:52:00,55.0,54.0,-100.00,ESE,102,13.0,-999.0,97,-99.99,,,-99.99,,2013-05-21 19:52:00,
2013-05-21 16:03:00,55.0,54.0,-100.00,ESE,102,13.0,-999.0,97,-99.99,,,-99.99,,2013-05-21 20:03:00,
2013-05-21 16:11:00,55.0,54.0,-100.00,ESE,102,13.0,-999.0,97,-99.99,,,-99.99,,2013-05-21 20:11:00,
2013-05-21 16:22:00,55.0,54.0,-100.00,ESE,106,10.0,-999.0,97,-99.99,,,-99.99,,2013-05-21 20:22:00,
2013-05-21 16:32:00,55.0,54.0,-100.00,ESE,104,8.0,-999.0,96,-99.99,,,-99.99,,2013-05-21 20:32:00,
2013-05-21 16:42:00,55.0,54.0,-100.00,ESE,104,8.0,-999.0,96,-99.99,,,-99.99,,2013-05-21 20:42:00,
2013-05-21 16:52:00,56.0,54.0,-100.00,ESE,104,8.0,-999.0,95,-99.99,,,-99.99,,2013-05-21 20:52:00,
2013-05-21 17:02:00,56.0,54.0,-100.00,ESE,104,8.0,-999.0,95,-99.99,,,-99.99,,2013-05-21 21:02:00,
2013-05-21 17:10:00,56.0,55.0,-100.00,ESE,108,10.0,-999.0,94,-99.99,,,-99.99,,2013-05-21 21:10:00,
2013-05-21 17:11:00,56.0,54.0,-100.00,ESE,104,8.0,-999.0,95,-99.99,,,-99.99,,2013-05-21 21:11:00,
2013-05-21 17:22:00,56.0,54.0,-100.00,ESE,106,12.0,-999.0,94,-99.99,,,-99.99,,2013-05-21 21:22:00,
2013-05-21 17:33:00,57.0,55.0,-100.00,ESE,108,10.0,-999.0,93,-99.99,,,-99.99,,2013-05-21 21:33:00,
2013-05-21 17:43:00,56.0,55.0,-100.00,ESE,108,10.0,-999.0,94,-99.99,,,-99.99,,2013-05-21 21:43:00,
2013-05-21 17:53:00,56.0,55.0,-100.00,ESE,108,10.0,-999.0,94,-99.99,,,-99.99,,2013-05-21 21:53:00,
2013-05-21 18:02:00,56.0,55.0,-100.00,ESE,108,10.0,-999.0,94,-99.99,,,-99.99,,2013-05-21 22:02:00,
2013-05-21 18:33:00,58.0,56.0,-100.00,East,86,10.0,-999.0,93,-99.99,,,-99.99,,2013-05-21 22:33:00,
2013-05-21 18:42:00,58.0,56.0,-100.00,East,86,10.0,-999.0,93,-99.99,,,-99.99,,2013-05-21 22:42:00,
2013-05-21 18:52:00,58.0,56.0,-100.00,East,86,10.0,-999.0,93,-99.99,,,-99.99,,2013-05-21 22:52:00,
2013-05-21 19:02:00,60.0,56.0,-100.00,East,86,10.0,-999.0,89,-99.99,,,-99.99,,2013-05-21 23:02:00,
2013-05-21 19:12:00,60.0,56.0,-100.00,East,86,10.0,-999.0,89,-99.99,,,-99.99,,2013-05-21 23:12:00,
2013-05-21 19:22:00,59.0,56.0,-100.00,East,92,10.0,-999.0,90,-99.99,,,-99.99,,2013-05-21 23:22:00,
2013-05-21 19:32:00,59.0,56.0,-100.00,East,94,10.0,-999.0,91,-99.99,,,-99.99,,2013-05-21 23:32:00,
2013-05-21 19:42:00,59.0,56.0,-100.00,East,94,10.0,-999.0,92,-99.99,,,-99.99,,2013-05-21 23:42:00,
2013-05-21 19:52:00,58.0,56.0,-100.00,East,94,10.0,-999.0,93,-99.99,,,-99.99,,2013-05-21 23:52:00,
2013-05-21 20:01:00,59.0,57.0,-100.00,East,94,10.0,-999.0,94,-99.99,,,-99.99,,2013-05-22 00:01:00,
2013-05-21 20:11:00,59.0,57.0,-100.00,East,94,10.0,-999.0,94,-99.99,,,-99.99,,2013-05-22 00:11:00,
2013-05-21 20:21:00,58.0,57.0,-100.00,ENE,78,10.0,-999.0,94,-99.99,,,-99.99,,2013-05-22 00:21:00,
2013-05-21 20:52:00,58.0,57.0,-100.00,East,80,9.0,-999.0,96,-99.99,,,-99.99,,2013-05-22 00:52:00,
2013-05-21 21:01:00,58.0,57.0,-100.00,East,80,9.0,-999.0,96,-99.99,,,-99.99,,2013-05-22 01:01:00,
2013-05-21 21:11:00,56.0,55.0,-100.00,East,80,9.0,-999.0,96,-99.99,,,-99.99,,2013-05-22 01:11:00,
2013-05-21 21:22:00,55.0,54.0,-100.00,East,88,12.0,-999.0,97,-99.99,,,-99.99,,2013-05-22 01:22:00,
2013-05-21 21:32:00,54.0,54.0,-100.00,East,90,9.0,-999.0,99,-99.99,,,-99.99,,2013-05-22 01:32:00,
2013-05-21 21:42:00,54.0,54.0,-100.00,East,90,9.0,-999.0,99,-99.99,,,-99.99,,2013-05-22 01:42:00,
2013-05-21 21:52:00,54.0,53.0,-100.00,East,90,9.0,-999.0,99,-99.99,,,-99.99,,2013-05-22 01:52:00,
2013-05-21 22:02:00,54.0,53.0,-100.00,East,90,9.0,-999.0,99,-99.99,,,-99.99,,2013-05-22 02:02:00,
2013-05-21 22:12:00,53.0,53.0,-100.00,East,90,9.0,-999.0,100,-99.99,,,-99.99,,2013-05-22 02:12:00,
2013-05-21 22:22:00,54.0,54.0,-100.00,East,94,8.0,-999.0,100,-99.99,,,-99.99,,2013-05-22 02:22:00,
2013-05-21 22:32:00,55.0,55.0,-100.00,ESE,104,8.0,-999.0,100,-99.99,,,-99.99,,2013-05-22 02:32:00,
2013-05-21 22:42:00,55.0,55.0,-100.00,ESE,104,8.0,-999.0,100,-99.99,,,-99.99,,2013-05-22 02:42:00,
2013-05-21 22:52:00,55.0,55.0,-100.00,ESE,104,8.0,-999.0,100,-99.99,,,-99.99,,2013-05-22 02:52:00,
2013-05-21 23:01:00,55.0,55.0,-100.00,ESE,104,8.0,-999.0,100,-99.99,,,-99.99,,2013-05-22 03:01:00,
2013-05-21 23:11:00,55.0,55.0,-100.00,East,92,7.0,-999.0,100,-99.99,,,-99.99,,2013-05-22 03:11:00,
2013-05-21 23:22:00,55.0,55.0,-100.00,East,92,7.0,-999.0,100,-99.99,,,-99.99,,2013-05-22 03:22:00,
2013-05-21 23:33:00,55.0,55.0,-100.00,East,100,7.0,-999.0,100,-99.99,,,-99.99,,2013-05-22 03:33:00,
2013-05-21 23:43:00,55.0,55.0,-100.00,East,100,7.0,-999.0,100,-99.99,,,-99.99,,2013-05-22 03:43:00,
2013-05-21 23:53:00,55.0,55.0,-100.00,East,100,7.0,-999.0,100,-99.99,,,-99.99,,2013-05-22 03:53:00,